Regional Weather Roundup
Issued by NWS

Home | Current Version | Previous Version | Graphics & Text | Print | Product List | Glossary On
Versions: 1 2 3 4 5 6 7 8 9 10 11 12 13 14 15 16 17 18 19 20 21 22 23 24 25 26 27 28 29 30 31 32 33 34 35 36 37 38 39 40 41 42 43 44 45 46 47 48 49 50
000
ASUS44 KMEG 271310
RWRTN
TENNESSEE HOURLY STATE WEATHER ROUNDUP
NATIONAL WEATHER SERVICE MEMPHIS TN
700 AM CST MON FEB 27 2017

TNZ002-004-019-021-049-052-054-088>092-271400-
WEST TENNESSEE

CITY           SKY/WX    TMP DP  RH WIND       PRES   REMARKS
MEMPHIS INTL   CLOUDY    48  44  86 SE8       30.10R
NWS MEMPHIS      N/A     47 N/A N/A MISG        N/A
JACKSON        MOCLDY    49  43  80 S12G18    30.12R
UNION CITY     CLOUDY    46  46 100 CALM      30.12R
PARIS          CLEAR     46  39  76 S13       30.12R
HUNTINGDON     PTCLDY    50  43  76 S13G18    30.11R
$$

TNZ008-025-027-028-033-062-065-066-271400-
NORTH MIDDLE TENNESSEE

CITY           SKY/WX    TMP DP  RH WIND       PRES   REMARKS
NASHVILLE      CLOUDY    48  29  47 CALM      30.23R
PORTLAND       CLOUDY    45  43  93 SE7       30.20S
CLARKSVILLE    CLOUDY    47  43  86 S6        30.15R
SMYRNA         CLOUDY    45  33  63 CALM      30.23S
COOKEVILLE     PTCLDY    48  25  40 SE8       30.21S
GALLATIN       CLOUDY    45  43  93 CALM      30.23F
CROSSVILLE     PTCLDY    40  24  53 CALM      30.26R
$$

TNZ061-075-076-078-094-096-097-271400-
SOUTH MIDDLE TENNESSEE

CITY           SKY/WX    TMP DP  RH WIND       PRES   REMARKS
FAYETTEVILLE   CLOUDY    46  30  53 N7        30.24R
TULLAHOMA      MOCLDY    46  21  36 E6        30.23R
WINCHESTER     MOCLDY    46  30  53 NE6       30.23R
MCMINNVILLE    MOCLDY    45  28  53 CALM      30.22F
COLUMBIA       CLOUDY    45  45 100 CALM      30.22R
SHELBYVILLE    CLOUDY    48  30  49 CALM      30.23R
$$

TNZ017-018-042-046-047-271400-
NORTHEAST TENNESSEE

CITY           SKY/WX    TMP DP  RH WIND       PRES   REMARKS
TRI CITIES     CLOUDY    34  25  69 CALM      30.31R
ELIZABETHTON   CLOUDY    39  27  60 NE5       30.31R
$$

TNZ012-013-036-069-073-074-271400-
CENTRAL EAST TENNESSEE

CITY           SKY/WX    TMP DP  RH WIND       PRES   REMARKS
KNOXVILLE      CLOUDY    40  25  55 N8        30.28R WCI  34
OAK RIDGE      PTCLDY    38  30  73 CALM      30.30R
GATLINBURG     CLEAR     30  27  86 CALM      30.28R
MORRISTOWN     MOCLDY    39  23  52 E5        30.28R
JACKSBORO      CLEAR     36  32  87 CALM      30.32S
$$

TNZ083-085-099-271400-
SOUTHEAST TENNESSEE

CITY           SKY/WX    TMP DP  RH WIND       PRES   REMARKS
CHATTANOOGA    CLOUDY    44  32  62 N6        30.26R
$$

SKY/WX REPORTED AS FAIR MEANS FEW OR NO CLOUDS BELOW
12 THOUSAND FEET.




USA.gov is the U.S. government's official web portal to all federal, state and local government web resources and services.